Location: Lac de la Montange Noire
(46.1952°N, 74.2701°W)
Time: 18:13:33
(UTC-04:00)

Iridium 42 - Visible Passes

Search period start: 28 March 2015 00:00
Search period end: 07 April 2015 00:00
Orbit: 775 x 779 km, 86.4° (Epoch: 28 March)

Date Brightness Start Highest point End Pass type
(mag) Time Alt. Az. Time Alt. Az. Time Alt. Az.
28 Mar 7.9 00:12:25 10° N 00:13:52 19° N 00:13:52 19° N visible
28 Mar 7.8 23:38:56 10° N 23:40:25 18° NNE 23:40:25 18° NNE visible
29 Mar 8.2 01:20:08 10° NNW 01:20:53 13° NNW 01:20:53 13° NNW visible
29 Mar 7.8 23:05:43 10° NNE 23:06:59 15° NNE 23:06:59 15° NNE visible
30 Mar 7.9 00:45:59 10° NNW 00:47:27 18° NNW 00:47:27 18° NNW visible
30 Mar 8.0 22:33:05 10° NE 22:33:32 11° NE 22:33:32 11° NE visible
31 Mar 7.7 00:12:08 10° N 00:14:00 23° N 00:14:00 23° N visible
31 Mar 7.5 23:38:30 10° N 23:40:34 24° N 23:40:34 24° N visible
01 Apr 8.2 01:20:21 10° NW 01:21:02 12° NW 01:21:02 12° NW visible
01 Apr 7.5 23:05:07 10° NNE 23:07:09 21° NNE 23:07:09 21° NNE visible
02 Apr 7.8 00:45:56 10° NNW 00:47:37 19° NW 00:47:37 19° NW visible
02 Apr 7.6 22:32:05 10° NNE 22:33:43 16° NE 22:33:43 16° NE visible
03 Apr 7.5 00:11:54 10° NNW 00:14:11 26° NNW 00:14:11 26° NNW visible
03 Apr 7.9 22:00:01 10° NE 22:00:18 10° NE 22:00:18 10° NE visible
03 Apr 7.1 23:38:08 10° N 23:40:46 30° N 23:40:46 30° N visible
04 Apr 8.2 01:20:55 10° NW 01:21:15 11° NW 01:21:15 11° NW visible
04 Apr 7.0 23:04:36 10° N 23:07:22 29° NNE 23:07:22 29° NNE visible
05 Apr 7.8 00:46:00 10° NNW 00:47:50 18° NW 00:47:50 18° NW visible
05 Apr 7.2 22:31:20 10° NNE 22:33:57 22° NE 22:33:57 22° NE visible
06 Apr 7.4 00:11:46 10° NNW 00:14:26 27° NW 00:14:26 27° NW visible
06 Apr 7.5 21:58:33 10° NNE 22:00:33 15° NE 22:00:33 15° NE visible
06 Apr 6.8 23:37:52 10° N 23:41:02 37° NNW 23:41:02 37° NNW visible
